Location: Hokitika
(42.7170°S, 170.9670°E)
Time: 03:59:50
(UTC+13:00)

Cosmos 2228 Rocket - Pass Details

Date: 24 January 2019
Orbit: 617 x 653 km, 82.5° (Epoch: 17 October)

Event Time Altitude Azimuth Distance (km) Brightness Sun altitude
Exits shadow 22:51:46 - 337° (NNW) 2,862 6.2 -16.0°
Reaches altitude 10° 22:53:59 10° 330° (NNW) 1,990 5.5 -16.2°
Maximum altitude 22:58:12 44° 258° (WSW) 873 4.2 -16.7°
Drops below altitude 10° 23:02:30 10° 185° (S) 2,023 6.5 -17.3°
Sets 23:04:51 0° 178° (S) 2,942 7.3 -17.6°
